GW6549 Weather Reports


Display with metric or nautical units.
time (UTC)temp
F
wind
direction
speed
MPH
gust
MPH
rain 1hr
in
rain 24hr
in
rain mn
in
humidity
%
barometer
mb
20260506215028 72 230 7.0 14.0 0.00 0.00 0.00 42 1012.5
20260506214027 72 213 7.0 14.0 0.00 0.00 0.00 43 1012.8
20260506213025 72 219 8.0 15.0 0.00 0.00 0.00 45 1012.8
20260506212024 72 224 8.0 15.0 0.00 0.00 0.00 44 1012.8
20260506211024 72 237 7.0 15.0 0.00 0.00 0.00 45 1012.8
20260506210020 71 217 7.0 14.0 0.00 0.00 0.00 45 1013.0
20260506205019 71 224 7.0 16.0 0.00 0.00 0.00 45 1013.2
20260506204017 71 213 8.0 15.0 0.00 0.00 0.00 45 1013.2
20260506203029 70 210 8.0 15.0 0.00 0.00 0.00 49 1013.2
20260506202030 70 211 9.0 16.0 0.00 0.00 0.00 48 1013.2
20260506201049 70 217 7.0 17.0 0.00 0.00 0.00 47 1013.2
20260506200029 70 214 10.0 17.0 0.00 0.00 0.00 48 1013.3
20260506195028 69 216 7.0 15.0 0.00 0.00 0.00 51 1013.4
20260506194048 69 209 8.0 16.0 0.00 0.00 0.00 51 1013.6
20260506193026 68 219 6.0 15.0 0.00 0.00 0.00 50 1013.5
20260506192026 68 217 8.0 14.0 0.00 0.00 0.00 51 1013.6
20260506191026 68 225 6.0 10.0 0.00 0.00 0.00 52 1013.5
20260506190025 67 226 8.0 17.0 0.00 0.00 0.00 52 1013.6
20260506185020 67 207 11.0 20.0 0.00 0.00 0.00 52 1013.6
20260506184018 67 214 10.0 18.0 0.00 0.00 0.00 50 1013.6
20260506183037 67 215 8.0 14.0 0.00 0.00 0.00 52 1013.6
20260506182049 67 216 8.0 16.0 0.00 0.00 0.00 52 1013.6
20260506181029 66 211 8.0 17.0 0.00 0.00 0.00 53 1013.6
20260506180028 66 215 10.0 16.0 0.00 0.00 0.00 51 1013.7
20260506175049 66 206 9.0 17.0 0.00 0.00 0.00 51 1013.8
20260506174047 66 207 8.0 15.0 0.00 0.00 0.00 52 1013.9
20260506173025 66 222 6.0 10.0 0.00 0.00 0.00 52 1013.9
20260506172040 65 207 9.0 16.0 0.00 0.00 0.00 52 1013.9
20260506171019 65 210 6.0 11.0 0.00 0.00 0.00 53 1013.9
20260506170017 64 199 7.0 14.0 0.00 0.00 0.00 51 1013.9
20260506165017 64 220 6.0 14.0 0.00 0.00 0.00 51 1013.9
20260506164031 63 210 8.0 13.0 0.00 0.00 0.00 51 1013.9
20260506163029 63 209 7.0 14.0 0.00 0.00 0.00 52 1013.9
20260506162028 63 205 8.0 15.0 0.00 0.00 0.00 52 1013.7
20260506161045 63 204 6.0 13.0 0.00 0.00 0.00 50 1013.8
20260506160025 62 198 5.0 14.0 0.00 0.00 0.00 48 1013.8
20260506155025 62 193 5.0 10.0 0.00 0.00 0.00 49 1013.8
20260506154024 61 208 2.0 5.0 0.00 0.00 0.00 45 1013.9
20260506153024 61 185 1.0 2.0 0.00 0.00 0.00 44 1013.9
20260506152019 60 174 2.0 3.0 0.00 0.00 0.00 43 1013.9
20260506151059 59 74 2.0 5.0 0.00 0.00 0.00 41 1013.9
20260506150017 59 83 2.0 5.0 0.00 0.00 0.00 43 1013.9
20260506145018 59 31 4.0 7.0 0.00 0.00 0.00 40 1013.9
20260506144019 59 40 4.0 8.0 0.00 0.00 0.00 40 1013.9
20260506143019 58 31 2.0 6.0 0.00 0.00 0.00 39 1013.9
20260506142017 58 32 4.0 7.0 0.00 0.00 0.00 39 1013.9
20260506141017 57 48 3.0 6.0 0.00 0.00 0.00 40 1013.9
20260506140037 57 22 5.0 8.0 0.00 0.00 0.00 40 1013.7
20260506135037 56 37 4.0 9.0 0.00 0.00 0.00 44 1013.6
20260506134017 55 42 4.0 9.0 0.00 0.00 0.00 45 1013.6
20260506133017 55 29 6.0 9.0 0.00 0.00 0.00 43 1013.4
20260506132039 55 46 4.0 9.0 0.00 0.00 0.00 43 1013.3
20260506131020 55 30 5.0 10.0 0.00 0.00 0.00 43 1013.2
20260506130019 55 22 6.0 10.0 0.00 0.00 0.00 44 1013.2
20260506125018 55 27 5.0 8.0 0.00 0.00 0.00 43 1013.2
20260506124025 55 19 7.0 11.0 0.00 0.00 0.00 41 1013.2
20260506123046 55 21 7.0 11.0 0.00 0.00 0.00 42 1013.0
20260506122025 55 25 7.0 10.0 0.00 0.00 0.00 41 1013.0
20260506121024 55 32 6.0 13.0 0.00 0.00 0.00 40 1012.9
20260506120019 56 38 6.0 10.0 0.00 0.00 0.00 41 1012.8
20260506115016 56 357 8.0 11.0 0.00 0.00 0.00 41 1012.8
20260506114030 56 7 9.0 13.0 0.00 0.00 0.00 40 1012.8
20260506113016 56 19 8.0 10.0 0.00 0.00 0.00 40 1012.9
20260506112016 55 18 7.0 10.0 0.00 0.00 0.00 40 1012.9
20260506111016 55 14 6.0 10.0 0.00 0.00 0.00 41 1012.9
20260506110029 54 9 7.0 14.0 0.00 0.00 0.00 42 1013.0
20260506105028 54 13 6.0 11.0 0.00 0.00 0.00 42 1012.8
20260506104029 54 357 6.0 9.0 0.00 0.00 0.00 44 1012.8
20260506103028 55 7 7.0 10.0 0.00 0.00 0.00 43 1012.8
20260506102027 55 16 5.0 10.0 0.00 0.00 0.00 44 1012.8
20260506101026 54 55 3.0 7.0 0.00 0.00 0.00 42 1012.8
20260506100025 54 33 6.0 10.0 0.00 0.00 0.00 42 1012.9
20260506095026 55 30 5.0 9.0 0.00 0.00 0.00 44 1012.8
20260506094025 55 17 7.0 11.0 0.00 0.00 0.00 43 1012.8
20260506093024 55 31 7.0 13.0 0.00 0.00 0.00 44 1012.9
20260506092039 55 19 7.0 11.0 0.00 0.00 0.00 41 1013.0
20260506091020 56 21 7.0 11.0 0.00 0.00 0.00 42 1012.8
20260506090018 56 12 11.0 15.0 0.00 0.00 0.00 42 1012.8
20260506085020 56 6 8.0 11.0 0.00 0.00 0.00 41 1012.9
20260506084039 56 23 9.0 13.0 0.00 0.00 0.00 41 1013.0
20260506083018 56 8 9.0 13.0 0.00 0.00 0.00 42 1012.8
20260506082038 57 19 8.0 11.0 0.00 0.00 0.00 41 1012.8
20260506081018 57 24 9.0 14.0 0.00 0.00 0.00 41 1012.8
20260506073028 55 20 8.0 11.0 0.00 0.00 0.00 44 1012.8
20260506072028 54 355 6.0 9.0 0.00 0.00 0.00 47 1012.8
20260506071047 53 68 2.0 5.0 0.00 0.00 0.00 49 1012.8
20260506062026 55 32 4.0 7.0 0.00 0.00 0.00 51 1012.5
20260506061025 56 39 3.0 6.0 0.00 0.00 0.00 50 1012.4
20260506051026 59 85 2.0 3.0 0.00 0.00 0.00 41 1012.1
20260506045016 57 20 3.0 5.0 0.00 0.00 0.00 40 1012.0
20260506044030 59 10 4.0 6.0 0.00 0.00 0.00 42 1011.8
20260506043029 60 117 1.0 2.0 0.00 0.00 0.00 45 1011.8
20260506042017 62 170 1.0 2.0 0.00 0.00 0.00 47 1011.8
20260506041037 63 6 2.0 5.0 0.00 0.00 0.00 34 1011.7
20260506040018 63 353 3.0 6.0 0.00 0.00 0.00 33 1011.6
20260506035016 63 353 4.0 6.0 0.00 0.00 0.00 33 1011.5
20260506034028 63 360 5.0 8.0 0.00 0.00 0.00 32 1011.4
20260506033029 63 348 3.0 3.0 0.00 0.00 0.00 35 1011.4
20260506032030 63 353 4.0 5.0 0.00 0.00 0.00 35 1011.4
20260506031028 63 358 4.0 6.0 0.00 0.00 0.00 34 1011.4
20260506030028 63 347 3.0 5.0 0.00 0.00 0.00 35 1011.3
20260506025016 64 2 5.0 7.0 0.00 0.00 0.00 36 1011.1
20260506024018 65 358 4.0 6.0 0.00 0.00 0.00 34 1011.1
20260506023017 65 355 4.0 6.0 0.00 0.00 0.00 33 1011.2
20260506022040 66 334 2.0 3.0 0.00 0.00 0.00 33 1011.3
20260506021025 67 334 2.0 2.0 0.00 0.00 0.00 34 1011.1
20260506020044 67 343 2.0 3.0 0.00 0.00 0.00 33 1011.1
20260506015017 67 358 2.0 3.0 0.00 0.00 0.00 32 1011.4
20260506014016 68 1 2.0 3.0 0.00 0.00 0.00 33 1011.2
20260506012016 69 8 3.0 6.0 0.00 0.00 0.00 29 1011.3
20260506011016 69 18 4.0 6.0 0.00 0.00 0.00 30 1011.4
20260506010016 69 351 3.0 5.0 0.00 0.00 0.00 29 1011.3
20260506005018 69 15 5.0 9.0 0.00 0.00 0.00 29 1011.4
20260506004017 69 7 6.0 9.0 0.00 0.00 0.00 30 1011.4
20260506003030 69 6 5.0 9.0 0.00 0.00 0.00 29 1011.4
20260506002030 70 360 8.0 15.0 0.00 0.00 0.00 29 1011.4
20260506001026 70 349 4.0 8.0 0.00 0.00 0.00 28 1011.7
20260506000026 70 17 8.0 15.0 0.00 0.00 0.00 28 1011.7
20260505235025 70 43 4.0 10.0 0.00 0.00 0.00 29 1011.7
20260505234025 70 20 3.0 8.0 0.00 0.00 0.00 29 1011.7
20260505233024 70 348 6.0 11.0 0.00 0.00 0.00 30 1011.7
20260505232020 70 27 5.0 11.0 0.00 0.00 0.00 30 1011.9
20260505231035 70 23 6.0 9.0 0.00 0.00 0.00 32 1011.8
20260505230029 70 23 6.0 14.0 0.00 0.00 0.00 32 1012.0
20260505225027 70 10 6.0 13.0 0.00 0.00 0.00 34 1012.0
20260505224026 70 93 3.0 11.0 0.00 0.00 0.00 33 1012.1
20260505223048 70 347 3.0 9.0 0.00 0.00 0.00 35 1012.1
20260505222027 70 18 6.0 11.0 0.00 0.00 0.00 33 1012.1
20260505221026 69 24 6.0 14.0 0.00 0.00 0.00 35 1012.1
20260505220026 69 5 7.0 14.0 0.00 0.00 0.00 33 1012.1